DELTA 1 DEB, 7193

Orbit data source: Space-Track

DELTA 1 DEB, 7193 is space debris in SSO originally from a launch on Tue, 06 Nov 1973 UTC launched from the Air Force Western Test Range (AFWTR). Debris objects in space refer to the collection of defunct objects orbiting the Earth. Examples of debris include non-operational satellites, rocket bodies, and fragments generated from explosions, collisions, or faulty payload assembly.

Loading next visibility...
Identifier
7193, 1973-086FB
Orbit
SSO
Country
Flag of USUS
Related business
Manufacturer
Unknown
Mission
Spacecraft
Bus & Motor
Unknown
Mass
Unknown
Launch date (UTC)
1973-11-06 (52 years ago)
Launch vehicle
Unknown
Launch site
Air Force Western Test Range (AFWTR)
Object type
Payload
Rocket body
Debris
Shape & HBR
Unknown shape, 0.2 m
Radar Cross Section
Small (<0.1 m²)

Expand to show TLE details & history
Last TLE update: 1 day ago

TLE from 1 day ago
0 DELTA 1 DEB
1 07193U 73086FB  25291.96831063  .00000331  00000-0  35943-2 0  9992
2 07193 101.8506   8.0796 0299334 258.9907 277.9290 12.09169467285638
Epoch: 2025-10-18T23:14Z
TLE epoch observation values (Epoch: 2025-10-18T23:14:22.038Z)
Latitude
6.28636°
Longitude
173.11418°
Altitude
1,615.963 km
Speed
7.074 km/s
True Right ascension
12h 37m 35s
True Declination
6° 15' 11"
Sunlit
Object was in daylight at epoch
Visualization orbit readout
Latitude
Unknown
Longitude
Unknown
Altitude
Unknown
Speed
Unknown
Apparent Right ascension
Unknown
Apparent Declination
Unknown
Sunlit
N/A
Visualization observer readout
Local Sidereal Time
21:41:45
Azimuth
Unknown
Elevation
Unknown
Doppler factor
Unknown
Orbital elements
Apogee altitude
1,877.61 km
Perigee altitude
1,397.729 km
Semi-major axis
8,015.807 km
Eccentricity
0.02993
Inclination
101.8506°
RAAN
8.0796°
Arg. of periapsis
258.9907°
True anomaly
274.51608°
Mean anomaly
277.929°
Eccentric anomaly
276.22405°
Mean motion
3.02428 °/min
Orbital period
119.04 mins
BSTAR
0.0035943
Loading maneuver chart data...
Computing Atmospheric mass density...
Loading historical data...
Loading historical data...
Loading historical data...
Loading historical data...
Loading historical data...
Loading historical data...
Loading historical data...

Documentation

Showing up to 5 results
|